MERIDIAN 8 (44453 NORAD) Tracking and Keplerian Element Data

This shows tracking and keplerian element data for the satellite.

Feedback or suggestion? Click here.




ElementValue
Catalog44453
NameMERIDIAN 8
Epoch Orbit491
Epoch Day91.48984523
Epoch Year2020
RAAN312.1373
Inclination62.7389
Eccentricity0.716786
Argument of Perigee271.6837
Mean Anonmoly253.7499
Mean Motion2.00612142
Decay Rate1.11E-06
L11 44453U 19046A 20091.48984523 .00000111 00000-0 00000-0 0 9998
L22 44453 62.7389 312.1373 7167860 271.6837 253.7499 2.00612142 4917

Live tracking and technical data element details for MERIDIAN 8 (NORAD 44453). MERIDIAN 8 can be tracked NOW for your location showing map with azimuth and elevation plus other details from your city location.

Track the satellite on the map from your city or location and see movement details for azimuth, elevation, latitude, longitude, range, height, and movement on the map or in text.







IsCatalogInMostPopularTable: catalog: 44453, numindb: 39
Update: records affected: 1



GetName: 44453 MERIDIAN 8

Hit Count: updated at: Thu, 02 Apr 2020 12:19:49 GMT